Regional Weather Roundup
Issued by NWS

Home | Current Version | Previous Version | Graphics & Text | Print | Product List | Glossary On
Versions: 1 2 3 4 5 6 7 8 9 10 11 12 13 14 15 16 17 18 19 20 21 22 23 24 25 26 27
000
ASUS45 KCYS 261710
RWRWY

WYOMING REGIONAL WEATHER ROUNDUP
NATIONAL WEATHER SERVICE CHEYENNE WY
1100 AM MDT SAT MAY 26 2018

NOTE:  "FAIR" INDICATES FEW OR NO CLOUDS BELOW 12,000 FEET
WITH NO SIGNIFICANT WEATHER AND/OR OBSTRUCTIONS TO VISIBILITY.

WYZ001-261800-
YELLOWSTONE NATIONAL PARK

CITY           SKY/WX    TMP DP  RH WIND       PRES   REMARKS
LK YELLOWSTONE   N/A     57  38  48 E5        30.05S
W YELLOWSTONE  NOT AVBL

$$
WYZ002>013-054>058-071-098>099-261800-
NORTHERN WYOMING

CITY           SKY/WX    TMP DP  RH WIND       PRES   REMARKS
JACKSON        FAIR      63  43  48 SW6       29.96F
CODY           FAIR      74  46  36 VRB3      29.86S
GREYBULL       FAIR      77  50  38 VRB3      29.78F
WORLAND        FAIR      74  49  41 VRB3      29.81F
SHERIDAN       FAIR      74  57  55 CALM      29.78F
BUFFALO        FAIR      80  52  37 S17       29.82F
GILLETTE       FAIR      80  48  32 S21G26    29.81F
NEWCASTLE      FAIR      79  46  31 S15G25    29.87S

$$
WYZ014>020-022>026-101>103-261800-
CENTRAL WYOMING

CITY           SKY/WX    TMP DP  RH WIND       PRES   REMARKS
BIG PINEY      FAIR      67  34  29 VRB3      29.98F
PINEDALE       FAIR      68  36  30 S9G23     29.99F
DUBOIS         FAIR      68  36  30 SE12      29.96F
LANDER         FAIR      71  48  43 VRB3      29.91S
RIVERTON       FAIR      70  47  43 VRB3      29.90F
CASPER         FAIR      81  34  18 SW16      29.90F
DOUGLAS        FAIR      78  56  46 SE8       29.90F

$$
WYZ021-027>030-104>119-261800-
SOUTHERN WYOMING

CITY           SKY/WX    TMP DP  RH WIND       PRES   REMARKS
EVANSTON       FAIR      66  30  26 W6        29.98F
FORT BRIDGER   FAIR      70  23  17 CALM      30.00F
ROCK SPRINGS   FAIR      74  14  10 S20G28    29.97F
DIXON          FAIR      78  15   9 SW15G21   30.03F
RAWLINS        FAIR      77  17  10 S17G29    30.02F
SARATOGA       FAIR      79  14   8 S18G24    30.05S
LARAMIE        FAIR      77  18  11 SW13      30.06F
CHEYENNE       FAIR      82  25  12 W5        29.99F
TORRINGTON     FAIR      77  58  51 MISG      29.86F
PINE BLUFFS    FAIR      81  54  39 S6        29.94F

$$




USA.gov is the U.S. government's official web portal to all federal, state and local government web resources and services.